Regional Weather Roundup
Issued by NWS Cleveland, OH

Home | Current Version | Previous Version | Text Only | Print | Product List | Glossary On
Versions: 1 2 3 4 5 6 7 8 9 10 11 12 13 14 15 16 17 18 19 20 21 22 23 24 25 26 27 28 29 30 31 32 33 34 35 36 37 38 39 40 41 42 43 44 45 46 47 48 49 50
000
ASUS41 KCLE 291012
RWRCLE
OHIO REGIONAL WEATHER ROUNDUP
NATIONAL WEATHER SERVICE WILMINGTON, OH
600 AM EDT WED MAR 29 2017

NOTE: "FAIR" INDICATES FEW OR NO CLOUDS BELOW 12,000 FEET WITH NO
SIGNIFICANT WEATHER AND/OR OBSTRUCTIONS TO VISIBILITY.

OHZ001>008-015>018-024>027-034-035-043-044-291100-
   NORTHWEST OHIO

CITY           SKY/WX    TMP DP  RH WIND       PRES   REMARKS
DEFIANCE       MOCLDY    35  33  92 NE5       30.22S
FINDLAY        CLOUDY    39  32  76 NE9       30.19S
TOLEDO EXPRESS FAIR      34  32  92 N5        30.22F WCI  30
TOLEDO EXEC    FAIR      36  33  89 NE6       30.23S
LIMA           CLOUDY    38  35  89 E13G23    30.19R
$$

OHZ009>014-019>023-028>033-038-089-291100-
   NORTHEAST OHIO

CITY           SKY/WX    TMP DP  RH WIND       PRES   REMARKS
CLE-HOPKINS    CLOUDY    39  34  82 N5        30.23R
CLE-LAKEFRONT  CLOUDY    37  35  92 W3        30.22R
CUY CO. ARPT   NOT AVBL
LORAIN-ELYRIA  CLOUDY    37  32  82 N6        30.21R
ASHTABULA      FAIR      35  34  96 NE3       30.19R
AKRON-CANTON   CLOUDY    40  37  89 N6        30.18R FOG
WOOSTER        CLOUDY    39  37  92 N6        30.19R
MANSFIELD      CLOUDY    39  37  92 N8        30.18R
YOUNGSTOWN     CLOUDY    41  35  79 NE8       30.17R
$$

OHZ042-051>053-060>062-070>072-077>081-291100-
  SOUTHWEST OHIO

CITY           SKY/WX    TMP DP  RH WIND       PRES   REMARKS
CINC-COVINGTON CLOUDY    47  43  86 NE14      30.14R
CINC-LUNKEN    CLOUDY    46  41  82 E8        30.17R
HAMILTON       MOCLDY    46  39  76 E10       30.17R
DAYTON         FAIR      40  37  89 NE7       30.16R
WRIGHT-PAT AFB PTCLDY    42  40  91 NE10      30.16R
DAYTON GENERAL CLOUDY    43  37  79 E8        30.15R
WILMINGTON     FAIR      39  37  92 NE7       30.14F
$$

OHZ036-037-039>041-045>050-054>059-063>069-073>076-082>088-291100-
  CENTRAL AND SOUTHEAST OHIO

CITY           SKY/WX    TMP DP  RH WIND       PRES   REMARKS
COLUMBUS       CLOUDY    42  38  85 NE5       30.17R
OSU AIRPORT    CLOUDY    39  37  92 N7        30.17S
BOLTON FIELD   CLOUDY    39  37  90 E7        30.17S
RICKENBACK AFB CLOUDY    40  38  93 NE5       30.17S
NEWARK         CLOUDY    42  38  85 VRB6      30.16R
MARION         CLOUDY    39  36  89 NE8       30.19R
LANCASTER      CLOUDY    43  38  82 E3        30.16F
ZANESVILLE     CLOUDY    44  38  79 N7        30.16R
NEW PHILLY     CLOUDY    44  40  85 N3        30.18R
$$



USA.gov is the U.S. government's official web portal to all federal, state and local government web resources and services.